Wind_Speed
18 18 17 16 19 17 16 17 17 16 16 16 15 15 14 13 11 9 8 8 7 6 6 6 6 5 5 6 7 7 7 7 8 8 8 7 7 7 7 7 6 6 6 5 5 4 4 4 5
17 17 17 18 18 14 16 16 17 16 16 15 16 15 14 13 11 9 8 7 6 6 5 5 5 5 5 6 6 6 6 7 7 7 7 7 7 6 7 6 6 6 5 5 5 4 4 4 5
15 16 17 18 15 14 15 16 16 16 16 16 16 16 15 13 11 9 8 7 6 5 5 4 4 4 4 5 6 6 6 6 6 6 6 6 6 6 6 6 6 6 5 5 5 4 4 4 5
14 15 16 16 14 13 13 15 16 17 17 17 16 16 15 14 12 10 8 7 5 4 4 3 3 3 4 4 5 6 6 6 6 6 6 6 6 5 5 5 5 5 5 5 5 4 4 4 4
14 14 15 13 12 13 13 14 15 17 17 16 16 16 15 14 13 11 9 8 6 4 2 2 2 3 3 4 5 5 5 6 6 6 6 6 5 5 5 5 5 5 5 5 5 4 4 4 4
13 13 12 10 11 12 13 13 14 15 15 15 15 15 14 14 13 11 9 8 7 5 3 1 1 2 3 4 5 5 5 5 6 6 5 5 5 4 4 4 4 5 5 5 5 5 4 4 4
12 11 9 9 10 11 12 12 13 13 14 14 14 14 14 14 13 11 10 9 8 6 4 2 1 2 4 5 5 5 5 6 6 6 5 5 4 4 4 4 4 5 5 5 5 5 5 4 4
10 11 9 9 9 10 11 11 12 12 13 13 13 14 15 14 12 11 11 9 8 7 5 3 1 2 3 4 5 6 6 6 6 5 5 5 4 3 3 4 4 5 5 5 5 5 5 5 4
9 9 7 7 8 9 10 10 11 11 12 12 13 13 14 14 12 11 11 10 9 7 5 3 2 2 3 5 6 7 6 6 6 5 5 5 4 3 3 4 4 5 5 5 5 5 5 4 4
6 6 5 6 7 8 9 9 9 10 11 11 12 13 14 14 13 12 11 10 9 8 6 4 2 2 3 4 6 7 6 7 7 6 6 5 4 3 3 3 4 4 4 4 4 4 4 4 4
4 4 4 6 6 7 8 9 8 9 10 10 11 12 14 14 14 12 11 10 9 8 7 5 3 3 3 4 5 6 6 7 7 7 6 5 5 4 4 3 4 4 3 3 3 4 4 4 3
2 3 3 4 5 6 6 7 8 8 8 9 10 12 13 14 13 12 11 10 9 8 7 5 4 3 4 4 5 6 7 7 8 8 7 6 5 5 4 3 4 4 4 3 3 3 4 4 3
1 1 2 3 4 5 5 6 6 7 8 8 10 11 13 13 13 12 11 10 9 8 7 6 4 3 4 5 5 6 7 8 8 8 7 7 6 6 5 4 4 4 4 3 3 3 3 3 3
0 0 1 2 3 4 5 5 6 7 8 9 9 10 12 13 13 12 11 10 10 8 7 7 5 4 4 5 6 7 7 8 8 8 7 7 7 6 6 5 5 4 4 4 3 2 3 3 3
1 1 2 3 4 5 5 6 7 7 8 9 9 10 11 13 13 12 11 10 10 8 7 7 6 5 6 6 6 7 7 9 8 8 8 7 7 6 6 6 5 5 4 4 3 3 3 3 3
3 3 3 4 4 5 5 5 7 7 8 9 10 10 11 12 13 13 12 11 10 9 8 8 7 6 6 5 5 6 7 8 8 8 8 8 8 7 6 6 6 5 5 5 4 4 3 2 2
4 4 4 5 5 5 5 5 7 8 8 10 11 12 12 13 13 13 13 12 11 10 9 9 8 6 6 5 5 6 6 7 8 8 8 9 9 8 7 6 6 6 5 5 5 4 3 2 2
6 5 5 6 6 6 6 7 8 9 9 10 11 12 12 13 13 14 14 13 12 11 10 9 8 7 6 7 6 7 7 7 8 8 9 9 9 8 7 7 6 7 6 7 6 4 4 3 2
7 6 7 7 6 6 7 8 9 9 10 11 11 12 13 13 14 14 14 14 13 12 10 8 7 6 6 7 7 7 7 7 7 8 9 9 9 8 7 7 7 7 7 7 7 6 5 4 4
8 8 8 8 7 7 7 8 9 10 11 11 11 11 12 13 14 14 14 14 13 12 10 9 7 6 6 6 6 7 8 7 8 8 8 9 9 8 8 8 8 8 8 8 7 7 6 5 5
10 10 10 9 8 8 8 8 10 11 11 11 11 11 12 13 14 14 14 14 13 11 10 9 6 5 6 6 6 7 8 7 8 8 9 9 9 9 9 9 8 8 8 8 8 8 8 7 7
13 12 11 9 9 10 8 7 12 11 11 11 11 11 12 13 14 14 14 13 13 12 10 8 4 4 5 5 6 7 7 7 8 9 8 8 9 10 10 10 10 9 9 9 9 9 9 9 8
15 13 12 10 10 10 11 8 10 11 11 12 12 12 12 13 13 14 13 12 11 10 9 7 4 4 5 5 6 7 7 7 7 8 8 8 9 10 11 10 10 10 10 10 10 10 10 10 9
15 14 13 12 11 11 11 9 9 11 11 12 12 12 12 13 13 13 13 11 10 9 8 5 2 2 3 4 5 6 6 6 6 7 8 8 8 9 10 11 11 10 10 10 11 11 11 11 11
16 14 12 11 11 12 12 10 10 11 11 11 12 11 12 12 13 13 12 11 10 8 7 4 2 2 2 4 5 5 6 6 7 7 7 8 9 9 10 11 11 11 11 11 12 12 12 12 13
17 15 13 11 10 12 13 10 11 11 11 11 11 12 12 12 12 11 11 11 9 8 6 4 3 3 3 4 5 5 5 5 6 7 7 9 9 9 9 11 12 12 12 12 13 13 14 14 14
19 17 15 15 14 12 12 11 11 10 11 11 11 11 11 10 10 11 11 10 8 7 5 4 4 4 3 4 4 4 4 5 5 6 7 8 10 10 11 12 13 13 12 13 14 14 15 16 16
21 19 18 15 13 11 12 11 11 11 10 11 10 10 9 9 9 9 10 9 7 5 4 4 5 4 4 4 4 4 5 5 6 6 7 7 8 10 11 12 13 13 13 13 14 14 15 17 17
21 20 19 17 15 11 10 11 12 11 10 10 9 9 9 9 9 9 9 8 7 5 4 5 5 4 4 3 4 5 6 7 7 8 8 9 9 10 11 13 13 14 15 15 16 16 17 17 18
22 21 19 18 17 14 11 13 13 12 11 10 10 9 9 9 9 9 9 8 7 6 6 6 5 5 5 5 5 6 7 8 9 10 10 10 10 11 12 13 14 14 15 16 16 17 18 18 19
Wind_Direction
83 80 78 80 76 78 82 81 79 77 74 72 69 68 68 67 69 75 83 91 98 103 117 123 130 136 140 141 139 137 135 130 124 119 112 105 102 100 98 97 95 90 89 89 91 90 90 95 104
82 79 78 75 79 77 77 77 75 74 71 70 67 65 64 62 63 68 77 84 91 100 112 127 134 141 147 150 147 145 141 137 132 124 117 111 107 103 100 96 96 93 90 91 92 93 94 100 104
83 78 74 74 78 77 75 74 73 71 68 66 64 62 59 56 57 60 66 74 83 94 107 127 144 157 157 160 159 154 150 146 141 133 124 117 113 110 107 100 95 91 91 91 90 93 95 105 111
85 80 72 72 71 70 70 70 71 69 64 63 63 60 55 52 51 53 55 60 69 80 95 122 152 170 168 170 170 170 162 154 150 141 132 125 119 116 115 110 99 95 94 91 89 92 91 99 113
86 79 71 65 61 61 62 64 65 65 61 58 58 56 51 49 48 49 49 52 54 54 65 107 162 183 186 186 183 182 175 166 159 149 142 135 126 121 122 119 109 102 98 92 93 93 92 93 111
86 77 74 63 55 55 55 56 58 58 56 54 53 52 49 46 45 43 41 41 40 36 29 2 230 220 206 197 190 186 184 179 169 159 155 148 134 125 122 117 114 105 96 91 87 91 95 94 97
86 80 71 58 53 51 51 50 53 53 52 50 50 48 44 41 39 36 34 31 28 26 20 1 292 236 220 211 204 193 189 187 181 170 164 159 151 136 121 112 117 103 98 91 84 88 93 90 93
85 75 63 57 56 51 48 46 48 48 47 45 45 42 37 35 34 30 28 24 21 18 12 4 326 259 237 220 208 202 199 195 187 181 177 174 165 149 132 121 121 112 105 94 86 87 94 96 97
87 80 66 60 59 53 48 45 45 45 42 39 39 35 31 29 29 26 22 19 15 7 358 348 326 276 247 229 219 213 210 207 201 196 190 184 177 164 145 135 128 120 110 101 93 89 93 99 103
96 91 72 66 57 51 44 43 41 39 36 32 30 26 24 24 22 19 17 12 8 0 351 335 321 285 248 235 225 220 218 214 206 202 201 196 191 178 154 149 138 128 118 105 98 94 94 98 99
105 97 79 71 55 45 39 37 33 32 27 24 24 24 22 20 17 14 11 5 2 359 353 338 319 295 260 239 231 227 224 214 209 206 207 203 198 188 165 156 151 139 130 114 101 94 95 100 97
110 88 78 68 49 41 34 30 28 24 20 17 18 18 16 16 14 9 5 1 358 355 348 336 312 288 271 251 244 235 225 214 209 207 207 203 199 192 178 160 154 146 143 132 115 102 102 101 94
139 82 76 58 40 35 27 21 18 16 11 9 7 9 9 8 6 1 357 351 348 345 341 328 302 290 271 258 255 241 230 217 211 208 210 206 200 199 193 182 170 162 157 149 137 116 103 103 101
261 24 31 18 18 15 14 10 5 3 1 359 357 1 3 2 359 354 348 345 341 338 331 326 304 284 275 268 249 244 232 221 213 209 211 205 202 198 197 189 179 174 167 165 152 139 119 110 103
274 313 327 337 353 357 357 355 350 352 354 354 353 351 353 355 354 352 345 340 335 329 325 320 304 287 278 267 247 237 225 214 210 212 211 208 198 189 188 190 190 184 175 170 153 145 141 126 111
271 296 310 325 347 346 345 333 334 344 345 346 348 347 346 347 348 348 345 338 331 324 317 313 302 276 264 257 242 225 213 208 208 212 214 209 199 194 193 197 197 192 185 179 170 160 153 151 142
267 276 289 315 341 342 335 322 324 335 339 339 341 341 341 341 343 345 343 338 330 320 312 307 300 275 252 245 240 217 206 207 206 208 209 204 201 199 199 200 204 202 199 195 187 182 180 181 175
255 268 288 308 327 335 327 319 323 329 332 332 334 335 336 336 340 341 340 335 328 318 310 304 287 271 249 237 228 215 207 207 210 212 207 206 205 204 206 207 207 209 210 206 202 202 198 207 211
258 269 282 301 317 324 323 319 322 325 325 326 326 329 330 331 334 336 336 332 329 327 319 306 284 262 243 229 222 215 212 217 213 210 209 211 211 212 215 210 207 212 215 213 210 213 216 220 223
257 265 277 294 310 316 320 318 318 321 323 323 323 326 329 330 330 333 337 335 331 328 323 308 289 251 232 217 218 217 216 213 212 212 213 216 215 214 216 214 215 218 217 215 218 223 225 230 234
252 257 269 288 306 310 315 316 314 319 321 320 320 322 327 330 331 331 333 334 333 331 325 317 288 240 221 215 223 219 220 218 216 217 219 219 219 218 217 219 218 221 223 221 225 228 233 237 240
250 258 269 284 296 298 308 300 306 314 316 315 316 319 324 328 332 330 331 333 331 333 328 325 296 234 210 214 230 229 221 221 223 224 225 228 228 226 227 227 225 228 230 230 232 235 238 241 245
249 258 267 280 289 295 301 300 295 307 309 309 311 314 320 325 327 328 329 331 330 333 331 327 298 243 218 219 228 224 222 225 226 226 223 233 233 230 230 230 231 233 234 234 235 239 243 246 250
251 258 267 277 284 287 292 296 293 299 304 305 306 308 316 322 324 326 327 329 329 333 336 329 303 238 216 222 222 224 225 224 225 225 226 232 234 234 232 232 234 236 239 240 242 244 246 249 253
247 253 263 272 278 280 289 292 287 295 299 302 302 305 314 320 323 324 325 326 326 325 326 328 308 275 240 234 225 228 224 225 225 228 234 236 236 237 235 238 240 241 243 244 246 248 250 253 255
243 245 248 254 266 278 288 289 292 296 297 298 300 303 310 317 320 321 322 321 320 319 317 312 299 270 252 240 233 227 227 227 233 239 243 243 241 239 240 240 242 246 247 248 251 252 253 256 259
242 242 246 254 261 268 278 288 293 293 297 299 299 303 307 311 314 317 321 323 320 316 308 304 295 275 254 247 243 236 245 246 249 249 252 254 248 246 248 248 250 251 251 254 259 259 260 261 262
241 242 246 249 256 262 275 283 283 289 292 299 297 301 305 308 312 318 322 325 323 319 311 308 290 277 271 261 249 251 257 259 262 263 258 267 259 252 251 253 255 256 258 260 261 263 265 266 269
240 242 245 247 251 253 266 273 276 283 287 290 292 297 299 304 309 312 320 322 320 314 301 301 299 278 277 265 255 257 259 260 264 272 271 272 269 261 260 260 259 259 259 260 262 265 268 270 271
238 240 243 247 254 256 250 263 271 275 281 285 287 291 295 300 302 304 313 316 314 310 305 299 297 276 267 268 264 264 266 265 268 275 278 277 274 270 267 264 261 262 263 264 263 265 269 273 275
Height
5911 5911 5911 5912 5912 5913 5912 5911 5909 5908 5907 5906 5905 5904 5904 5904 5904 5906 5903 5902 5902 5902 5901 5902 5902 5902 5902 5902 5902 5902 5902 5902 5902 5902 5903 5903 5903 5903 5903 5903 5903 5903 5903 5903 5903 5903 5903 5903 5903
5913 5913 5914 5914 5916 5916 5914 5913 5911 5910 5909 5907 5906 5905 5905 5904 5904 5904 5903 5903 5903 5902 5902 5902 5903 5903 5903 5903 5903 5903 5903 5903 5903 5903 5903 5903 5903 5903 5904 5904 5904 5904 5904 5904 5904 5904 5904 5904 5904
5915 5916 5917 5918 5918 5917 5916 5914 5913 5911 5910 5909 5907 5907 5906 5905 5905 5904 5904 5903 5903 5903 5903 5903 5903 5903 5904 5904 5904 5904 5904 5904 5904 5903 5904 5904 5904 5904 5904 5904 5904 5904 5905 5904 5904 5904 5904 5904 5904
5918 5919 5920 5921 5920 5919 5917 5916 5914 5912 5911 5910 5909 5908 5907 5906 5906 5905 5904 5903 5903 5903 5903 5903 5903 5904 5904 5904 5904 5904 5904 5904 5904 5904 5904 5904 5904 5905 5905 5905 5905 5905 5905 5905 5905 5904 5904 5904 5904
5920 5921 5923 5923 5921 5920 5919 5917 5915 5914 5913 5911 5910 5909 5908 5907 5906 5905 5904 5904 5903 5903 5903 5903 5903 5904 5904 5904 5904 5904 5904 5904 5904 5904 5905 5905 5905 5905 5905 5905 5905 5905 5905 5905 5905 5905 5905 5905 5905
5922 5924 5926 5925 5923 5922 5920 5919 5917 5916 5914 5913 5912 5910 5909 5908 5907 5906 5905 5904 5903 5903 5903 5903 5903 5903 5903 5904 5904 5904 5904 5904 5904 5904 5905 5905 5905 5905 5905 5905 5905 5905 5905 5905 5905 5905 5905 5905 5905
5925 5926 5927 5926 5925 5924 5922 5920 5919 5917 5916 5914 5913 5911 5910 5909 5908 5906 5905 5904 5903 5903 5902 5902 5902 5902 5902 5903 5903 5903 5904 5904 5904 5904 5905 5905 5905 5905 5905 5905 5905 5905 5906 5906 5905 5905 5905 5905 5905
5926 5928 5928 5927 5926 5925 5924 5922 5920 5919 5917 5916 5914 5912 5911 5910 5908 5907 5905 5904 5903 5902 5902 5901 5901 5901 5901 5902 5902 5903 5903 5903 5904 5904 5904 5905 5905 5905 5905 5906 5906 5906 5906 5906 5906 5906 5906 5906 5906
5927 5930 5929 5928 5927 5926 5924 5923 5921 5920 5918 5917 5915 5914 5912 5910 5908 5907 5906 5904 5903 5902 5901 5901 5900 5900 5900 5901 5901 5901 5902 5902 5903 5903 5904 5904 5905 5905 5905 5906 5906 5906 5906 5906 5907 5907 5906 5907 5907
5928 5930 5929 5928 5927 5926 5925 5924 5922 5921 5919 5918 5916 5914 5912 5910 5909 5907 5905 5904 5903 5901 5900 5900 5899 5899 5899 5899 5900 5900 5901 5901 5902 5903 5903 5904 5905 5905 5905 5906 5906 5906 5907 5907 5907 5907 5907 5907 5907
5928 5929 5928 5928 5927 5926 5925 5924 5923 5921 5920 5918 5916 5915 5912 5910 5909 5907 5905 5904 5902 5901 5900 5899 5898 5898 5898 5898 5898 5899 5899 5900 5901 5902 5903 5904 5904 5905 5905 5905 5906 5906 5907 5907 5907 5907 5907 5908 5908
5928 5928 5928 5928 5927 5927 5926 5925 5923 5922 5921 5919 5917 5915 5913 5911 5909 5907 5905 5903 5902 5900 5899 5898 5897 5897 5897 5897 5897 5898 5898 5899 5900 5901 5902 5903 5904 5904 5905 5905 5906 5906 5907 5907 5907 5908 5908 5908 5908
5927 5928 5928 5928 5927 5927 5926 5925 5924 5922 5921 5919 5917 5915 5913 5911 5909 5907 5905 5903 5901 5900 5899 5897 5896 5896 5896 5896 5896 5896 5897 5898 5899 5900 5901 5902 5903 5904 5904 5905 5906 5906 5907 5907 5907 5908 5908 5908 5908
5927 5927 5927 5927 5927 5927 5926 5925 5924 5922 5921 5919 5917 5915 5913 5911 5908 5906 5904 5902 5900 5899 5897 5896 5895 5894 5894 5894 5895 5895 5895 5897 5898 5899 5901 5902 5903 5903 5904 5905 5905 5906 5907 5907 5907 5908 5908 5908 5909
5926 5927 5928 5927 5927 5926 5926 5925 5924 5922 5921 5919 5917 5915 5913 5910 5908 5905 5903 5901 5899 5897 5896 5895 5894 5893 5893 5893 5893 5894 5895 5896 5897 5898 5900 5901 5902 5903 5903 5904 5905 5906 5906 5907 5907 5908 5908 5909 5909
5926 5927 5928 5927 5926 5926 5927 5926 5924 5922 5920 5918 5916 5914 5912 5910 5907 5904 5902 5900 5898 5896 5895 5893 5892 5892 5892 5892 5892 5893 5894 5895 5896 5897 5899 5900 5901 5902 5903 5904 5905 5905 5906 5907 5907 5908 5908 5909 5909
5925 5927 5927 5926 5926 5925 5925 5924 5923 5921 5919 5918 5916 5914 5911 5909 5906 5903 5901 5898 5896 5895 5893 5892 5891 5890 5890 5890 5891 5892 5893 5894 5895 5896 5898 5899 5900 5901 5902 5903 5904 5905 5905 5906 5907 5908 5908 5909 5909
5925 5925 5925 5925 5924 5924 5924 5923 5922 5920 5918 5917 5915 5913 5910 5908 5905 5903 5900 5897 5895 5893 5891 5890 5889 5888 5888 5889 5890 5892 5892 5893 5894 5895 5897 5898 5899 5900 5901 5902 5903 5904 5905 5906 5907 5907 5908 5908 5909
5922 5923 5923 5923 5923 5923 5923 5922 5921 5919 5917 5916 5914 5912 5909 5907 5904 5902 5899 5896 5893 5891 5889 5888 5887 5887 5887 5888 5889 5890 5892 5893 5893 5894 5895 5897 5898 5899 5900 5901 5902 5903 5904 5905 5906 5907 5907 5908 5908
5920 5921 5921 5921 5921 5922 5921 5920 5919 5917 5916 5914 5913 5911 5909 5906 5904 5901 5898 5895 5892 5890 5888 5885 5884 5884 5885 5887 5888 5889 5890 5891 5892 5893 5894 5896 5897 5898 5899 5900 5901 5902 5903 5904 5905 5906 5907 5907 5908
5918 5919 5919 5920 5920 5920 5920 5920 5918 5916 5915 5913 5911 5909 5908 5905 5903 5900 5897 5894 5891 5888 5886 5883 5882 5883 5884 5885 5887 5888 5889 5890 5891 5892 5893 5895 5896 5897 5898 5899 5900 5901 5902 5903 5904 5905 5906 5906 5906
5915 5916 5917 5918 5919 5919 5919 5920 5917 5915 5913 5911 5910 5908 5906 5904 5902 5899 5896 5893 5890 5888 5885 5882 5881 5882 5883 5885 5886 5887 5888 5889 5890 5891 5892 5893 5894 5895 5896 5897 5898 5900 5901 5902 5902 5903 5904 5905 5905
5912 5913 5915 5915 5916 5917 5916 5917 5918 5913 5912 5910 5908 5906 5905 5903 5900 5897 5895 5892 5889 5887 5884 5882 5881 5882 5883 5884 5885 5886 5887 5888 5889 5890 5891 5892 5893 5893 5894 5895 5897 5898 5899 5900 5901 5901 5902 5902 5903
5909 5911 5912 5913 5914 5915 5914 5914 5914 5911 5910 5908 5906 5904 5903 5901 5898 5896 5893 5891 5889 5886 5884 5881 5881 5882 5883 5884 5884 5885 5885 5886 5887 5888 5889 5890 5891 5892 5893 5894 5895 5896 5897 5898 5898 5899 5900 5900 5901
5906 5909 5911 5912 5913 5913 5911 5911 5911 5909 5907 5906 5904 5903 5901 5899 5897 5895 5892 5890 5888 5886 5884 5882 5882 5882 5883 5883 5883 5884 5884 5885 5886 5887 5888 5889 5889 5890 5891 5892 5893 5894 5894 5895 5896 5897 5897 5898 5898
5902 5906 5909 5911 5913 5911 5908 5908 5908 5906 5905 5903 5902 5901 5899 5897 5895 5893 5891 5889 5887 5885 5884 5883 5882 5882 5882 5882 5882 5883 5883 5884 5885 5886 5886 5887 5888 5888 5889 5889 5890 5891 5892 5892 5893 5893 5894 5894 5895
5898 5901 5905 5906 5907 5908 5907 5906 5905 5904 5902 5901 5900 5899 5897 5896 5894 5892 5890 5887 5885 5884 5883 5882 5882 5882 5881 5882 5882 5882 5882 5883 5884 5884 5884 5884 5885 5886 5886 5887 5888 5888 5889 5889 5890 5890 5891 5891 5891
5895 5897 5899 5902 5903 5906 5906 5904 5904 5901 5900 5899 5898 5897 5896 5894 5893 5891 5889 5887 5884 5883 5882 5882 5881 5881 5881 5881 5881 5881 5882 5882 5882 5882 5882 5882 5882 5883 5884 5884 5885 5885 5886 5886 5887 5887 5887 5887 5887
5890 5893 5895 5898 5900 5902 5905 5905 5900 5899 5898 5897 5896 5895 5894 5893 5891 5890 5888 5886 5884 5883 5882 5881 5880 5880 5880 5880 5880 5880 5881 5881 5881 5881 5880 5880 5880 5880 5881 5881 5882 5882 5882 5883 5883 5883 5883 5883 5883
5885 5888 5891 5894 5895 5897 5900 5903 5897 5896 5896 5895 5894 5893 5892 5891 5890 5889 5887 5886 5884 5883 5882 5880 5879 5879 5879 5879 5879 5879 5879 5879 5879 5879 5879 5878 5878 5878 5878 5878 5878 5879 5879 5879 5879 5879 5879 5879 5878